Weather History for Grand Rapids, MI

Change the Weather History Date:

Wednesday, November 21, 2012

  Actual Average Record
Temperature  
Mean Temperature 43 °F 38 °F  
Max Temperature 53 °F 45 °F 70 °F (1913)
Min Temperature 33 °F 31 °F 10 °F (2014)
Degree Days  
Heating Degree Days 22 27  
Month to date heating degree days 490 484  
Since 1 July heating degree days 1060 1076  
Cooling Degree Days 0 0  
Month to date cooling degree days 0 0  
Year to date cooling degree days 1039 699  
Moisture  
Dew Point 40 °F    
Average Humidity 86    
Maximum Humidity 100    
Minimum Humidity 71    
Precipitation  
Precipitation 0.00 in 0.11 in 1.31 in (1979)
Month to date precipitation 0.33 2.52  
Year to date precipitation 30.84 34.78  
Snow  
Snow 0.00 in 0.30 in 3.00 in (2002)
Month to date snowfall 0.1 3.6  
Since 1 July snowfall 0.1 4.1  
Since 1 September snowfall 0.1 4.1  
Snow Depth 0.00 in    
Sea Level Pressure  
Sea Level Pressure 30.19 in    
Wind  
Wind Speed 5 mph (South)    
Max Wind Speed 13 mph    
Max Gust Speed 15 mph    
Visibility 3 miles    
Events Fog    
T = Trace of Precipitation, MM = Missing Value Source: NWS Daily Summary

Daily Weather History Graph

Daily Weather History Graph

Search for Another Location

Airport:

Trip Planner

Search our weather history database for the weather conditions in past years. The results will help you decide how hot, cold, wet, or windy it might be!

Date:

Astronomy

Nov. 21, 2012 Rise Set
Actual Time 7:42 AM EST 5:13 PM EST
Civil Twilight 7:11 AM EST 5:44 PM EST
Nautical Twilight 6:36 AM EST 6:19 PM EST
Astronomical Twilight 6:02 AM EST 6:53 PM EST
Moon 1:38 PM EST (11/21) 12:51 AM EST (11/21)
Length of Visible Light 10h 33m
Length of Day
9h 31m
First Quarter, 61% of the Moon is Illuminated
Nov 21
First Quarter
Nov 28
Full
Dec 6
Last Quarter
Dec 13
New
Dec 20
First Quarter

Hourly Weather History & Observations

Time (EST) Temp. Windchill Dew Point Humidity Pressure Visibility Wind Dir Wind Speed Gust Speed Precip Events Conditions
12:53 AM 48.9 °F - 41.0 °F 74% 30.18 in 6.0 mi Calm Calm - N/A   Haze
1:53 AM 46.9 °F - 41.0 °F 80% 30.18 in 7.0 mi Calm Calm - N/A   Overcast
2:53 AM 46.0 °F 44.8 °F 39.9 °F 79% 30.20 in 5.0 mi West 3.5 mph - N/A   Haze
3:53 AM 39.9 °F 36.7 °F 37.9 °F 93% 30.18 in 3.0 mi South 4.6 mph - N/A   Clear
4:11 AM 41.0 °F 37.1 °F 37.4 °F 87% 30.16 in 2.5 mi SSE 5.8 mph - N/A   Clear
4:53 AM 41.0 °F - 39.0 °F 93% 30.19 in 1.5 mi Calm Calm - N/A   Clear
5:01 AM 39.2 °F - 37.4 °F 93% 30.18 in 0.5 mi Calm Calm - N/A Fog Fog
5:21 AM 37.4 °F - 35.6 °F 93% 30.18 in 1.5 mi Calm Calm - N/A   Partly Cloudy
5:53 AM 36.0 °F - 34.0 °F 93% 30.21 in 1.2 mi Calm Calm - N/A   Scattered Clouds
6:30 AM 33.8 °F - 33.8 °F 100% 30.20 in 0.2 mi Calm Calm - N/A Fog Fog
6:53 AM 34.0 °F - 33.1 °F 96% 30.22 in 0.2 mi Calm Calm - N/A Fog Fog
7:10 AM 35.6 °F - 35.6 °F 100% 30.21 in 0.1 mi Calm Calm - N/A Fog Fog
7:37 AM 35.6 °F 31.7 °F 35.6 °F 100% 30.21 in 0.1 mi South 4.6 mph - N/A Fog Fog
7:51 AM 35.6 °F 31.7 °F 35.6 °F 100% 30.21 in 0.2 mi South 4.6 mph - N/A Fog Fog
7:53 AM 36.0 °F 31.1 °F 35.1 °F 97% 30.23 in 0.2 mi SSE 5.8 mph - N/A Fog Fog
8:05 AM 35.6 °F 31.7 °F 35.6 °F 100% 30.22 in 0.2 mi SSE 4.6 mph - N/A Fog Fog
8:53 AM 37.9 °F - 37.0 °F 97% 30.24 in 0.1 mi Calm Calm - N/A Fog Fog
9:53 AM 39.9 °F - 39.0 °F 97% 30.25 in 0.1 mi Calm Calm - N/A Fog Fog
10:53 AM 43.0 °F - 42.1 °F 97% 30.25 in 0.2 mi Calm Calm - N/A Fog Fog
11:04 AM 44.6 °F 43.1 °F 42.8 °F 93% 30.24 in 1.0 mi South 3.5 mph - N/A   Scattered Clouds
11:16 AM 44.6 °F 43.1 °F 42.8 °F 93% 30.23 in 2.5 mi South 3.5 mph - N/A   Scattered Clouds
11:32 AM 46.4 °F 44.3 °F 42.8 °F 87% 30.23 in 3.0 mi South 4.6 mph - N/A   Partly Cloudy
11:53 AM 46.9 °F - 44.1 °F 90% 30.24 in 4.0 mi South 5.8 mph - N/A   Partly Cloudy
12:53 PM 53.1 °F - 44.1 °F 71% 30.22 in 5.0 mi South 9.2 mph - N/A   Haze
1:34 PM 51.8 °F - 44.6 °F 76% 30.20 in 4.0 mi SW 8.1 mph - N/A   Haze
1:53 PM 51.1 °F - 44.1 °F 77% 30.20 in 4.0 mi South 5.8 mph - N/A   Haze
2:18 PM 51.8 °F - 44.6 °F 76% 30.18 in 4.0 mi South 9.2 mph - N/A   Haze
2:53 PM 51.8 °F - 44.6 °F 76% 30.17 in 5.0 mi South 8.1 mph - N/A   Haze
3:53 PM 53.1 °F - 45.0 °F 74% 30.18 in 5.0 mi South 6.9 mph - N/A   Haze
4:53 PM 50.0 °F - 44.1 °F 80% 30.17 in 4.0 mi South 6.9 mph - N/A   Haze
5:53 PM 48.0 °F - 43.0 °F 83% 30.16 in 5.0 mi SSE 4.6 mph - N/A   Haze
6:53 PM 48.0 °F - 42.1 °F 80% 30.17 in 5.0 mi SSW 5.8 mph - N/A   Haze
7:53 PM 46.0 °F 42.5 °F 42.1 °F 86% 30.16 in 4.0 mi South 6.9 mph - N/A   Mostly Cloudy
8:53 PM 45.0 °F 41.2 °F 41.0 °F 86% 30.16 in 3.0 mi South 6.9 mph - N/A   Scattered Clouds
9:42 PM 44.6 °F 40.2 °F 41.0 °F 87% 30.13 in 2.5 mi South 8.1 mph - N/A   Scattered Clouds
9:53 PM 45.0 °F 40.1 °F 42.1 °F 90% 30.15 in 2.5 mi South 9.2 mph - N/A   Scattered Clouds
10:53 PM 45.0 °F 39.7 °F 42.1 °F 90% 30.14 in 2.5 mi South 10.4 mph - N/A   Scattered Clouds
11:19 PM 46.4 °F 42.4 °F 42.8 °F 87% 30.12 in 3.0 mi South 8.1 mph - N/A   Scattered Clouds
11:53 PM 45.0 °F 41.2 °F 42.1 °F 90% 30.13 in 3.0 mi South 6.9 mph - N/A   Scattered Clouds